Location: Chimay
(50.0486°N, 4.3171°E)
Time: 20:59:57
(UTC+00:00)

Cosmos 2366 rocket - Pass Details

Date: 08 August 2020
Orbit: 955 x 997 km, 82.9° (Epoch: 21 September)

Event Time Altitude Azimuth Distance (km) Brightness Sun altitude
Rises 19:48:07 0° 193° (SSW) 3,673 6.8 -5.7°
Reaches altitude 10° 19:50:38 10° 195° (SSW) 2,724 6.2 -6.0°
Maximum altitude 19:56:52 74° 281° (W) 1,012 4.3 -6.9°
Drops below altitude 10° 20:03:05 10° 7° (N) 2,713 6.8 -7.7°
Sets 20:05:36 0° 9° (N) 3,659 7.4 -8.0°
